Year,Month,Day,Hour,Minute,Value (Times are PST for windgust in km/hr)
2011,07,07,00,01,1.60
2011,07,07,00,02,1.60
2011,07,07,00,03,1.60
2011,07,07,00,04,1.60
2011,07,07,00,05,1.60
2011,07,07,00,06,3.20
2011,07,07,00,07,3.20
2011,07,07,00,08,3.20
2011,07,07,00,09,3.20
2011,07,07,00,10,1.60
2011,07,07,00,11,1.60
2011,07,07,00,12,1.60
2011,07,07,00,18,1.60
2011,07,07,00,19,1.60
2011,07,07,00,20,1.60
2011,07,07,00,22,1.60
2011,07,07,00,23,1.60
2011,07,07,00,24,1.60
2011,07,07,00,25,1.60
2011,07,07,00,26,1.60
2011,07,07,00,27,1.60
2011,07,07,00,28,3.20
2011,07,07,00,29,4.80
2011,07,07,00,30,3.20
2011,07,07,00,31,1.60
2011,07,07,00,32,1.60
2011,07,07,00,33,3.20
2011,07,07,00,34,3.20
2011,07,07,00,35,3.20
2011,07,07,00,36,4.80
2011,07,07,00,37,4.80
2011,07,07,00,38,4.80
2011,07,07,00,39,3.20
2011,07,07,00,40,1.60
2011,07,07,00,41,1.60
2011,07,07,00,43,1.60
2011,07,07,00,44,1.60
2011,07,07,00,45,3.20
2011,07,07,00,46,3.20
2011,07,07,00,47,3.20
2011,07,07,00,48,1.60
2011,07,07,00,49,1.60
2011,07,07,00,50,3.20
2011,07,07,00,51,4.80
2011,07,07,00,52,3.20
2011,07,07,00,53,3.20
2011,07,07,00,54,4.80
2011,07,07,00,55,4.80
2011,07,07,00,56,4.80
2011,07,07,00,57,3.20
2011,07,07,00,58,3.20
2011,07,07,00,59,3.20
2011,07,07,01,00,4.80
2011,07,07,01,01,4.80
2011,07,07,01,02,4.80
2011,07,07,01,03,4.80
2011,07,07,01,04,6.40
2011,07,07,01,05,4.80
2011,07,07,01,06,4.80
2011,07,07,01,07,4.80
2011,07,07,01,08,6.40
2011,07,07,01,09,6.40
2011,07,07,01,10,4.80
2011,07,07,01,11,3.20
2011,07,07,01,12,3.20
2011,07,07,01,13,3.20
2011,07,07,01,14,3.20
2011,07,07,01,15,6.40
2011,07,07,01,16,4.80
2011,07,07,01,17,4.80
2011,07,07,01,18,4.80
2011,07,07,01,19,3.20
2011,07,07,01,20,4.80
2011,07,07,01,21,4.80
2011,07,07,01,22,4.80
2011,07,07,01,23,3.20
2011,07,07,01,24,3.20
2011,07,07,01,25,4.80
2011,07,07,01,26,1.60
2011,07,07,01,27,1.60
2011,07,07,01,28,3.20
2011,07,07,01,29,4.80
2011,07,07,01,30,1.60
2011,07,07,01,31,1.60
2011,07,07,01,32,3.20
2011,07,07,01,33,4.80
2011,07,07,01,34,3.20
2011,07,07,01,35,4.80
2011,07,07,01,36,9.60
2011,07,07,01,37,11.30
2011,07,07,01,38,8.10
2011,07,07,01,39,6.40
2011,07,07,01,40,8.10
2011,07,07,01,41,8.10
2011,07,07,01,42,6.40
2011,07,07,01,43,6.40
2011,07,07,01,44,4.80
2011,07,07,01,45,4.80
2011,07,07,01,46,4.80
2011,07,07,01,47,4.80
2011,07,07,01,48,3.20
2011,07,07,01,49,1.60
2011,07,07,01,50,3.20
2011,07,07,01,51,3.20
2011,07,07,01,52,1.60
2011,07,07,01,53,1.60
2011,07,07,01,54,1.60
2011,07,07,01,55,1.60
2011,07,07,01,56,1.60
2011,07,07,01,57,1.60
2011,07,07,01,58,1.60
2011,07,07,01,59,1.60
2011,07,07,02,00,3.20
2011,07,07,02,01,3.20
2011,07,07,02,02,3.20
2011,07,07,02,03,3.20
2011,07,07,02,04,3.20
2011,07,07,02,05,3.20
2011,07,07,02,06,3.20
2011,07,07,02,07,3.20
2011,07,07,02,08,3.20
2011,07,07,02,09,3.20
2011,07,07,02,10,1.60
2011,07,07,02,11,1.60
2011,07,07,02,12,3.20
2011,07,07,02,13,1.60
2011,07,07,02,14,1.60
2011,07,07,02,15,3.20
2011,07,07,02,16,1.60
2011,07,07,02,17,1.60
2011,07,07,02,18,3.20
2011,07,07,02,19,3.20
2011,07,07,02,20,3.20
2011,07,07,02,21,4.80
2011,07,07,02,22,4.80
2011,07,07,02,23,3.20
2011,07,07,02,24,3.20
2011,07,07,02,25,3.20
2011,07,07,02,26,3.20
2011,07,07,02,27,3.20
2011,07,07,02,28,1.60
2011,07,07,02,30,1.60
2011,07,07,02,31,3.20
2011,07,07,02,32,1.60
2011,07,07,02,34,1.60
2011,07,07,02,35,3.20
2011,07,07,02,36,1.60
2011,07,07,02,37,1.60
2011,07,07,02,38,1.60
2011,07,07,02,39,1.60
2011,07,07,02,40,1.60
2011,07,07,02,41,1.60
2011,07,07,02,42,3.20
2011,07,07,02,43,3.20
2011,07,07,02,44,3.20
2011,07,07,02,45,1.60
2011,07,07,02,46,1.60
2011,07,07,02,47,1.60
2011,07,07,02,48,3.20
2011,07,07,02,49,3.20
2011,07,07,02,50,3.20
2011,07,07,02,51,1.60
2011,07,07,02,52,3.20
2011,07,07,02,53,4.80
2011,07,07,02,54,3.20
2011,07,07,02,55,3.20
2011,07,07,02,56,1.60
2011,07,07,02,57,3.20
2011,07,07,02,58,4.80
2011,07,07,02,59,3.20
2011,07,07,03,00,3.20
2011,07,07,03,01,4.80
2011,07,07,03,02,3.20
2011,07,07,03,03,3.20
2011,07,07,03,04,3.20
2011,07,07,03,05,4.80
2011,07,07,03,06,3.20
2011,07,07,03,07,3.20
2011,07,07,03,08,3.20
2011,07,07,03,09,3.20
2011,07,07,03,10,1.60
2011,07,07,03,11,3.20
2011,07,07,03,12,3.20
2011,07,07,03,13,3.20
2011,07,07,03,14,3.20
2011,07,07,03,15,3.20
2011,07,07,03,16,3.20
2011,07,07,03,17,3.20
2011,07,07,03,18,4.80
2011,07,07,03,19,4.80
2011,07,07,03,20,4.80
2011,07,07,03,21,6.40
2011,07,07,03,22,6.40
2011,07,07,03,23,4.80
2011,07,07,03,24,6.40
2011,07,07,03,25,6.40
2011,07,07,03,26,3.20
2011,07,07,03,27,3.20
2011,07,07,03,28,3.20
2011,07,07,03,29,1.60
2011,07,07,03,30,3.20
2011,07,07,03,31,1.60
2011,07,07,03,32,3.20
2011,07,07,03,33,3.20
2011,07,07,03,34,4.80
2011,07,07,03,35,1.60
2011,07,07,03,36,3.20
2011,07,07,03,37,3.20
2011,07,07,03,38,3.20
2011,07,07,03,39,4.80
2011,07,07,03,40,3.20
2011,07,07,03,41,4.80
2011,07,07,03,42,6.40
2011,07,07,03,43,4.80
2011,07,07,03,44,4.80
2011,07,07,03,45,3.20
2011,07,07,03,46,3.20
2011,07,07,03,47,1.60
2011,07,07,03,48,1.60
2011,07,07,03,49,3.20
2011,07,07,03,50,3.20
2011,07,07,03,51,3.20
2011,07,07,03,52,3.20
2011,07,07,03,53,3.20
2011,07,07,03,54,3.20
2011,07,07,03,55,3.20
2011,07,07,03,56,4.80
2011,07,07,03,57,3.20
2011,07,07,03,58,3.20
2011,07,07,03,59,3.20
2011,07,07,04,00,1.60
2011,07,07,04,01,1.60
2011,07,07,04,02,1.60
2011,07,07,04,03,3.20
2011,07,07,04,04,3.20
2011,07,07,04,05,1.60
2011,07,07,04,06,3.20
2011,07,07,04,07,3.20
2011,07,07,04,08,6.40
2011,07,07,04,09,4.80
2011,07,07,04,10,3.20
2011,07,07,04,11,6.40
2011,07,07,04,12,6.40
2011,07,07,04,13,6.40
2011,07,07,04,14,8.10
2011,07,07,04,15,8.10
2011,07,07,04,16,8.10
2011,07,07,04,17,9.60
2011,07,07,04,18,4.80
2011,07,07,04,19,8.10
2011,07,07,04,20,4.80
2011,07,07,04,21,9.60
2011,07,07,04,22,8.10
2011,07,07,04,23,9.60
2011,07,07,04,24,9.60
2011,07,07,04,25,6.40
2011,07,07,04,26,6.40
2011,07,07,04,27,8.10
2011,07,07,04,28,6.40
2011,07,07,04,29,8.10
2011,07,07,04,30,6.40
2011,07,07,04,31,6.40
2011,07,07,04,32,6.40
2011,07,07,04,33,8.10
2011,07,07,04,34,8.10
2011,07,07,04,35,8.10
2011,07,07,04,36,6.40
2011,07,07,04,37,6.40
2011,07,07,04,38,6.40
2011,07,07,04,39,6.40
2011,07,07,04,40,6.40
2011,07,07,04,41,6.40
2011,07,07,04,42,4.80
2011,07,07,04,43,8.10
2011,07,07,04,44,9.60
2011,07,07,04,45,8.10
2011,07,07,04,46,6.40
2011,07,07,04,47,4.80
2011,07,07,04,48,6.40
2011,07,07,04,49,6.40
2011,07,07,04,50,6.40
2011,07,07,04,51,6.40
2011,07,07,04,52,6.40
2011,07,07,04,53,6.40
2011,07,07,04,54,8.10
2011,07,07,04,55,9.60
2011,07,07,04,56,6.40
2011,07,07,04,57,9.60
2011,07,07,04,58,16.10
2011,07,07,04,59,11.30
2011,07,07,05,00,9.60
2011,07,07,05,01,9.60
2011,07,07,05,02,8.10
2011,07,07,05,03,14.50
2011,07,07,05,04,16.10
2011,07,07,05,05,14.50
2011,07,07,05,06,12.90
2011,07,07,05,07,11.30
2011,07,07,05,08,11.30
2011,07,07,05,09,11.30
2011,07,07,05,10,11.30
2011,07,07,05,11,9.60
2011,07,07,05,12,9.60
2011,07,07,05,13,14.50
2011,07,07,05,14,11.30
2011,07,07,05,15,11.30
2011,07,07,05,16,9.60
2011,07,07,05,17,11.30
2011,07,07,05,18,9.60
2011,07,07,05,19,9.60
2011,07,07,05,20,4.80
2011,07,07,05,21,8.10
2011,07,07,05,22,8.10
2011,07,07,05,23,8.10
2011,07,07,05,24,9.60
2011,07,07,05,25,9.60
2011,07,07,05,26,8.10
2011,07,07,05,27,6.40
2011,07,07,05,28,9.60
2011,07,07,05,29,9.60
2011,07,07,05,30,9.60
2011,07,07,05,31,6.40
2011,07,07,05,32,6.40
2011,07,07,05,33,6.40
2011,07,07,05,34,6.40
2011,07,07,05,35,3.20
2011,07,07,05,36,4.80
2011,07,07,05,37,3.20
2011,07,07,05,38,6.40
2011,07,07,05,39,6.40
2011,07,07,05,40,4.80
2011,07,07,05,41,4.80
2011,07,07,05,42,3.20
2011,07,07,05,43,4.80
2011,07,07,05,44,4.80
2011,07,07,05,45,4.80
2011,07,07,05,46,8.10
2011,07,07,05,47,6.40
2011,07,07,05,48,4.80
2011,07,07,05,49,6.40
2011,07,07,05,50,6.40
2011,07,07,05,51,4.80
2011,07,07,05,52,6.40
2011,07,07,05,53,8.10
2011,07,07,05,54,4.80
2011,07,07,05,55,6.40
2011,07,07,05,56,4.80
2011,07,07,05,57,4.80
2011,07,07,05,58,9.60
2011,07,07,05,59,8.10
2011,07,07,06,00,6.40
2011,07,07,06,01,8.10
2011,07,07,06,02,6.40
2011,07,07,06,03,4.80
2011,07,07,06,04,6.40
2011,07,07,06,05,3.20
2011,07,07,06,06,4.80
2011,07,07,06,07,6.40
2011,07,07,06,08,4.80
2011,07,07,06,09,6.40
2011,07,07,06,10,6.40
2011,07,07,06,11,6.40
2011,07,07,06,12,4.80
2011,07,07,06,13,6.40
2011,07,07,06,14,6.40
2011,07,07,06,15,4.80
2011,07,07,06,16,8.10
2011,07,07,06,17,6.40
2011,07,07,06,18,4.80
2011,07,07,06,19,4.80
2011,07,07,06,20,3.20
2011,07,07,06,21,6.40
2011,07,07,06,22,6.40
2011,07,07,06,23,4.80
2011,07,07,06,24,6.40
2011,07,07,06,25,4.80
2011,07,07,06,26,4.80
2011,07,07,06,27,4.80
2011,07,07,06,28,4.80
2011,07,07,06,29,12.90
2011,07,07,06,30,9.60
2011,07,07,06,31,11.30
2011,07,07,06,32,9.60
2011,07,07,06,33,8.10
2011,07,07,06,34,9.60
2011,07,07,06,35,14.50
2011,07,07,06,36,9.60
2011,07,07,06,37,9.60
2011,07,07,06,38,6.40
2011,07,07,06,39,6.40
2011,07,07,06,40,14.50
2011,07,07,06,41,11.30
2011,07,07,06,42,14.50
2011,07,07,06,43,11.30
2011,07,07,06,44,11.30
2011,07,07,06,45,14.50
2011,07,07,06,46,9.60
2011,07,07,06,47,11.30
2011,07,07,06,48,9.60
2011,07,07,06,49,16.10
2011,07,07,06,50,9.60
2011,07,07,06,51,16.10
2011,07,07,06,52,11.30
2011,07,07,06,53,14.50
2011,07,07,06,54,14.50
2011,07,07,06,55,8.10
2011,07,07,06,56,14.50
2011,07,07,06,57,14.50
2011,07,07,06,58,11.30
2011,07,07,06,59,12.90
2011,07,07,07,00,11.30
2011,07,07,07,01,14.50
2011,07,07,07,02,11.30
2011,07,07,07,03,16.10
2011,07,07,07,04,14.50
2011,07,07,07,05,9.60
2011,07,07,07,06,11.30
2011,07,07,07,07,8.10
2011,07,07,07,08,19.30
2011,07,07,07,09,9.60
2011,07,07,07,10,16.10
2011,07,07,07,11,14.50
2011,07,07,07,12,9.60
2011,07,07,07,13,17.70
2011,07,07,07,14,11.30
2011,07,07,07,15,16.10
2011,07,07,07,16,9.60
2011,07,07,07,17,14.50
2011,07,07,07,18,17.70
2011,07,07,07,19,12.90
2011,07,07,07,20,12.90
2011,07,07,07,21,9.60
2011,07,07,07,22,14.50
2011,07,07,07,23,14.50
2011,07,07,07,24,12.90
2011,07,07,07,25,19.30
2011,07,07,07,26,16.10
2011,07,07,07,27,17.70
2011,07,07,07,28,11.30
2011,07,07,07,29,16.10
2011,07,07,07,30,14.50
2011,07,07,07,31,11.30
2011,07,07,07,32,11.30
2011,07,07,07,33,11.30
2011,07,07,07,34,16.10
2011,07,07,07,35,11.30
2011,07,07,07,36,14.50
2011,07,07,07,37,16.10
2011,07,07,07,38,17.70
2011,07,07,07,39,12.90
2011,07,07,07,40,19.30
2011,07,07,07,41,16.10
2011,07,07,07,42,11.30
2011,07,07,07,43,9.60
2011,07,07,07,44,14.50
2011,07,07,07,45,11.30
2011,07,07,07,46,17.70
2011,07,07,07,47,11.30
2011,07,07,07,48,17.70
2011,07,07,07,49,17.70
2011,07,07,07,50,17.70
2011,07,07,07,51,14.50
2011,07,07,07,52,19.30
2011,07,07,07,53,16.10
2011,07,07,07,54,19.30
2011,07,07,07,55,19.30
2011,07,07,07,56,17.70
2011,07,07,07,57,14.50
2011,07,07,07,58,19.30
2011,07,07,07,59,17.70
2011,07,07,08,00,17.70
2011,07,07,08,01,20.90
2011,07,07,08,02,19.30
2011,07,07,08,03,22.50
2011,07,07,08,04,19.30
2011,07,07,08,05,11.30
2011,07,07,08,06,14.50
2011,07,07,08,07,19.30
2011,07,07,08,08,19.30
2011,07,07,08,09,24.20
2011,07,07,08,10,11.30
2011,07,07,08,11,20.90
2011,07,07,08,12,22.50
2011,07,07,08,13,16.10
2011,07,07,08,14,17.70
2011,07,07,08,15,14.50
2011,07,07,08,16,12.90
2011,07,07,08,17,16.10
2011,07,07,08,18,14.50
2011,07,07,08,19,9.60
2011,07,07,08,20,11.30
2011,07,07,08,21,17.70
2011,07,07,08,22,11.30
2011,07,07,08,23,9.60
2011,07,07,08,24,19.30
2011,07,07,08,25,17.70
2011,07,07,08,26,17.70
2011,07,07,08,27,16.10
2011,07,07,08,28,17.70
2011,07,07,08,29,17.70
2011,07,07,08,30,16.10
2011,07,07,08,31,17.70
2011,07,07,08,32,12.90
2011,07,07,08,33,14.50
2011,07,07,08,34,17.70
2011,07,07,08,35,14.50
2011,07,07,08,36,17.70
2011,07,07,08,37,16.10
2011,07,07,08,38,19.30
2011,07,07,08,39,9.60
2011,07,07,08,40,17.70
2011,07,07,08,41,19.30
2011,07,07,08,42,16.10
2011,07,07,08,43,11.30
2011,07,07,08,44,20.90
2011,07,07,08,45,19.30
2011,07,07,08,46,16.10
2011,07,07,08,47,11.30
2011,07,07,08,48,20.90
2011,07,07,08,49,22.50
2011,07,07,08,50,16.10
2011,07,07,08,51,19.30
2011,07,07,08,52,17.70
2011,07,07,08,53,16.10
2011,07,07,08,54,19.30
2011,07,07,08,55,12.90
2011,07,07,08,56,17.70
2011,07,07,08,57,14.50
2011,07,07,08,58,19.30
2011,07,07,08,59,17.70
2011,07,07,09,00,19.30
2011,07,07,09,01,20.90
2011,07,07,09,02,19.30
2011,07,07,09,03,14.50
2011,07,07,09,04,19.30
2011,07,07,09,05,17.70
2011,07,07,09,06,17.70
2011,07,07,09,07,27.40
2011,07,07,09,08,22.50
2011,07,07,09,09,20.90
2011,07,07,09,10,17.70
2011,07,07,09,11,16.10
2011,07,07,09,12,20.90
2011,07,07,09,13,17.70
2011,07,07,09,14,17.70
2011,07,07,09,15,25.70
2011,07,07,09,16,19.30
2011,07,07,09,17,14.50
2011,07,07,09,18,20.90
2011,07,07,09,19,16.10
2011,07,07,09,20,11.30
2011,07,07,09,21,14.50
2011,07,07,09,22,17.70
2011,07,07,09,23,16.10
2011,07,07,09,24,14.50
2011,07,07,09,25,14.50
2011,07,07,09,26,11.30
2011,07,07,09,27,17.70
2011,07,07,09,28,11.30
2011,07,07,09,29,11.30
2011,07,07,09,30,8.10
2011,07,07,09,31,11.30
2011,07,07,09,32,16.10
2011,07,07,09,33,19.30
2011,07,07,09,34,19.30
2011,07,07,09,35,20.90
2011,07,07,09,36,17.70
2011,07,07,09,37,20.90
2011,07,07,09,38,17.70
2011,07,07,09,39,14.50
2011,07,07,09,40,17.70
2011,07,07,09,41,19.30
2011,07,07,09,42,17.70
2011,07,07,09,43,12.90
2011,07,07,09,44,16.10
2011,07,07,09,45,16.10
2011,07,07,09,46,9.60
2011,07,07,09,47,19.30
2011,07,07,09,48,17.70
2011,07,07,09,49,20.90
2011,07,07,09,50,20.90
2011,07,07,09,51,27.40
2011,07,07,09,52,22.50
2011,07,07,09,53,19.30
2011,07,07,09,54,17.70
2011,07,07,09,55,16.10
2011,07,07,09,56,9.60
2011,07,07,09,57,11.30
2011,07,07,09,58,19.30
2011,07,07,09,59,16.10
2011,07,07,10,00,11.30
2011,07,07,10,01,16.10
2011,07,07,10,02,14.50
2011,07,07,10,03,17.70
2011,07,07,10,04,16.10
2011,07,07,10,05,20.90
2011,07,07,10,06,25.70
2011,07,07,10,07,27.40
2011,07,07,10,08,22.50
2011,07,07,10,09,17.70
2011,07,07,10,10,25.70
2011,07,07,10,11,30.60
2011,07,07,10,12,25.70
2011,07,07,10,13,22.50
2011,07,07,10,14,30.60
2011,07,07,10,15,25.70
2011,07,07,10,16,29.00
2011,07,07,10,17,22.50
2011,07,07,10,18,19.30
2011,07,07,10,19,25.70
2011,07,07,10,20,35.40
2011,07,07,10,21,33.80
2011,07,07,10,22,30.60
2011,07,07,10,23,32.20
2011,07,07,10,24,33.80
2011,07,07,10,25,25.70
2011,07,07,10,26,27.40
2011,07,07,10,27,25.70
2011,07,07,10,28,29.00
2011,07,07,10,29,22.50
2011,07,07,10,30,30.60
2011,07,07,10,31,29.00
2011,07,07,10,32,24.20
2011,07,07,10,33,16.10
2011,07,07,10,34,27.40
2011,07,07,10,35,32.20
2011,07,07,10,36,20.90
2011,07,07,10,37,17.70
2011,07,07,10,38,24.20
2011,07,07,10,39,32.20
2011,07,07,10,40,27.40
2011,07,07,10,41,25.70
2011,07,07,10,42,30.60
2011,07,07,10,43,25.70
2011,07,07,10,44,24.20
2011,07,07,10,45,20.90
2011,07,07,10,46,22.50
2011,07,07,10,47,24.20
2011,07,07,10,48,20.90
2011,07,07,10,49,24.20
2011,07,07,10,50,22.50
2011,07,07,10,51,20.90
2011,07,07,10,52,25.70
2011,07,07,10,53,22.50
2011,07,07,10,54,20.90
2011,07,07,10,55,24.20
2011,07,07,10,56,22.50
2011,07,07,10,57,27.40
2011,07,07,10,58,25.70
2011,07,07,10,59,17.70
2011,07,07,11,00,20.90
2011,07,07,11,01,20.90
2011,07,07,11,02,25.70
2011,07,07,11,03,24.20
2011,07,07,11,04,25.70
2011,07,07,11,05,19.30
2011,07,07,11,06,27.40
2011,07,07,11,07,24.20
2011,07,07,11,08,22.50
2011,07,07,11,09,22.50
2011,07,07,11,10,29.00
2011,07,07,11,11,22.50
2011,07,07,11,12,27.40
2011,07,07,11,13,25.70
2011,07,07,11,14,25.70
2011,07,07,11,15,27.40
2011,07,07,11,16,29.00
2011,07,07,11,17,22.50
2011,07,07,11,18,24.20
2011,07,07,11,19,30.60
2011,07,07,11,20,29.00
2011,07,07,11,21,33.80
2011,07,07,11,22,25.70
2011,07,07,11,23,33.80
2011,07,07,11,24,30.60
2011,07,07,11,25,25.70
2011,07,07,11,26,32.20
2011,07,07,11,27,27.40
2011,07,07,11,28,30.60
2011,07,07,11,29,25.70
2011,07,07,11,30,24.20
2011,07,07,11,31,24.20
2011,07,07,11,32,22.50
2011,07,07,11,33,33.80
2011,07,07,11,34,30.60
2011,07,07,11,35,20.90
2011,07,07,11,36,19.30
2011,07,07,11,37,27.40
2011,07,07,11,38,19.30
2011,07,07,11,39,25.70
2011,07,07,11,40,24.20
2011,07,07,11,41,29.00
2011,07,07,11,42,25.70
2011,07,07,11,43,27.40
2011,07,07,11,44,20.90
2011,07,07,11,45,22.50
2011,07,07,11,46,19.30
2011,07,07,11,47,38.60
2011,07,07,11,48,19.30
2011,07,07,11,49,24.20
2011,07,07,11,50,19.30
2011,07,07,11,51,17.70
2011,07,07,11,52,16.10
2011,07,07,11,53,35.40
2011,07,07,11,54,33.80
2011,07,07,11,55,32.20
2011,07,07,11,56,25.70
2011,07,07,11,57,17.70
2011,07,07,11,58,30.60
2011,07,07,11,59,25.70
2011,07,07,12,00,20.90
2011,07,07,12,01,25.70
2011,07,07,12,02,24.20
2011,07,07,12,03,29.00
2011,07,07,12,04,27.40
2011,07,07,12,05,24.20
2011,07,07,12,06,30.60
2011,07,07,12,07,25.70
2011,07,07,12,08,27.40
2011,07,07,12,09,25.70
2011,07,07,12,10,24.20
2011,07,07,12,11,24.20
2011,07,07,12,12,27.40
2011,07,07,12,13,29.00
2011,07,07,12,14,29.00
2011,07,07,12,15,29.00
2011,07,07,12,16,25.70
2011,07,07,12,17,32.20
2011,07,07,12,18,20.90
2011,07,07,12,19,27.40
2011,07,07,12,20,30.60
2011,07,07,12,21,29.00
2011,07,07,12,22,40.20
2011,07,07,12,23,32.20
2011,07,07,12,24,35.40
2011,07,07,12,25,27.40
2011,07,07,12,26,24.20
2011,07,07,12,27,37.00
2011,07,07,12,28,43.50
2011,07,07,12,29,37.00
2011,07,07,12,30,41.80
2011,07,07,12,31,27.40
2011,07,07,12,32,24.20
2011,07,07,12,33,32.20
2011,07,07,12,34,19.30
2011,07,07,12,35,22.50
2011,07,07,12,36,29.00
2011,07,07,12,37,30.60
2011,07,07,12,38,24.20
2011,07,07,12,39,29.00
2011,07,07,12,40,32.20
2011,07,07,12,41,22.50
2011,07,07,12,42,24.20
2011,07,07,12,43,30.60
2011,07,07,12,44,27.40
2011,07,07,12,45,30.60
2011,07,07,12,46,24.20
2011,07,07,12,47,29.00
2011,07,07,12,48,30.60
2011,07,07,12,49,20.90
2011,07,07,12,50,30.60
2011,07,07,12,51,32.20
2011,07,07,12,52,38.60
2011,07,07,12,53,29.00
2011,07,07,12,54,22.50
2011,07,07,12,55,30.60
2011,07,07,12,56,27.40
2011,07,07,12,57,25.70
2011,07,07,12,58,25.70
2011,07,07,12,59,27.40
2011,07,07,13,00,27.40
2011,07,07,13,01,24.20
2011,07,07,13,02,25.70
2011,07,07,13,03,29.00
2011,07,07,13,04,19.30
2011,07,07,13,05,29.00
2011,07,07,13,06,27.40
2011,07,07,13,07,29.00
2011,07,07,13,08,27.40
2011,07,07,13,09,38.60
2011,07,07,13,10,29.00
2011,07,07,13,11,22.50
2011,07,07,13,12,27.40
2011,07,07,13,13,30.60
2011,07,07,13,14,40.20
2011,07,07,13,15,32.20
2011,07,07,13,16,35.40
2011,07,07,13,17,35.40
2011,07,07,13,18,32.20
2011,07,07,13,19,43.50
2011,07,07,13,20,38.60
2011,07,07,13,21,30.60
2011,07,07,13,22,30.60
2011,07,07,13,23,30.60
2011,07,07,13,24,35.40
2011,07,07,13,25,32.20
2011,07,07,13,26,37.00
2011,07,07,13,27,35.40
2011,07,07,13,28,41.80
2011,07,07,13,29,40.20
2011,07,07,13,30,38.60
2011,07,07,13,31,32.20
2011,07,07,13,32,32.20
2011,07,07,13,33,29.00
2011,07,07,13,34,46.70
2011,07,07,13,35,37.00
2011,07,07,13,36,38.60
2011,07,07,13,37,43.50
2011,07,07,13,38,37.00
2011,07,07,13,39,45.10
2011,07,07,13,40,37.00
2011,07,07,13,41,33.80
2011,07,07,13,42,53.10
2011,07,07,13,43,40.20
2011,07,07,13,44,40.20
2011,07,07,13,45,35.40
2011,07,07,13,46,45.10
2011,07,07,13,47,49.90
2011,07,07,13,48,35.40
2011,07,07,13,49,32.20
2011,07,07,13,50,40.20
2011,07,07,13,51,37.00
2011,07,07,13,52,45.10
2011,07,07,13,53,37.00
2011,07,07,13,54,30.60
2011,07,07,13,55,45.10
2011,07,07,13,56,41.80
2011,07,07,13,57,32.20
2011,07,07,13,58,41.80
2011,07,07,13,59,43.50
2011,07,07,14,00,38.60
2011,07,07,14,01,37.00
2011,07,07,14,02,30.60
2011,07,07,14,03,45.10
2011,07,07,14,04,41.80
2011,07,07,14,05,43.50
2011,07,07,14,06,32.20
2011,07,07,14,07,41.80
2011,07,07,14,08,37.00
2011,07,07,14,09,40.20
2011,07,07,14,10,37.00
2011,07,07,14,11,38.60
2011,07,07,14,12,35.40
2011,07,07,14,13,46.70
2011,07,07,14,14,48.30
2011,07,07,14,15,37.00
2011,07,07,14,16,41.80
2011,07,07,14,17,33.80
2011,07,07,14,18,35.40
2011,07,07,14,19,33.80
2011,07,07,14,20,41.80
2011,07,07,14,21,38.60
2011,07,07,14,22,37.00
2011,07,07,14,23,43.50
2011,07,07,14,24,38.60
2011,07,07,14,25,35.40
2011,07,07,14,26,43.50
2011,07,07,14,27,38.60
2011,07,07,14,28,33.80
2011,07,07,14,29,37.00
2011,07,07,14,30,33.80
2011,07,07,14,31,35.40
2011,07,07,14,32,51.50
2011,07,07,14,33,38.60
2011,07,07,14,34,33.80
2011,07,07,14,35,32.20
2011,07,07,14,36,27.40
2011,07,07,14,37,37.00
2011,07,07,14,38,33.80
2011,07,07,14,39,33.80
2011,07,07,14,40,33.80
2011,07,07,14,41,32.20
2011,07,07,14,42,38.60
2011,07,07,14,43,45.10
2011,07,07,14,44,43.50
2011,07,07,14,45,20.90
2011,07,07,14,46,40.20
2011,07,07,14,47,41.80
2011,07,07,14,48,37.00
2011,07,07,14,49,35.40
2011,07,07,14,50,37.00
2011,07,07,14,51,33.80
2011,07,07,14,52,27.40
2011,07,07,14,53,33.80
2011,07,07,14,54,37.00
2011,07,07,14,55,33.80
2011,07,07,14,56,49.90
2011,07,07,14,57,51.50
2011,07,07,14,58,49.90
2011,07,07,14,59,38.60
2011,07,07,15,00,38.60
2011,07,07,15,01,48.30
2011,07,07,15,02,35.40
2011,07,07,15,03,45.10
2011,07,07,15,04,46.70
2011,07,07,15,05,57.90
2011,07,07,15,06,56.30
2011,07,07,15,07,49.90
2011,07,07,15,08,41.80
2011,07,07,15,09,46.70
2011,07,07,15,10,46.70
2011,07,07,15,11,43.50
2011,07,07,15,12,49.90
2011,07,07,15,13,38.60
2011,07,07,15,14,48.30
2011,07,07,15,15,38.60
2011,07,07,15,16,46.70
2011,07,07,15,17,38.60
2011,07,07,15,18,43.50
2011,07,07,15,19,33.80
2011,07,07,15,20,43.50
2011,07,07,15,21,46.70
2011,07,07,15,22,51.50
2011,07,07,15,23,46.70
2011,07,07,15,24,30.60
2011,07,07,15,25,32.20
2011,07,07,15,26,38.60
2011,07,07,15,27,25.70
2011,07,07,15,28,40.20
2011,07,07,15,29,38.60
2011,07,07,15,30,45.10
2011,07,07,15,31,35.40
2011,07,07,15,32,51.50
2011,07,07,15,33,40.20
2011,07,07,15,34,53.10
2011,07,07,15,35,38.60
2011,07,07,15,36,48.30
2011,07,07,15,37,49.90
2011,07,07,15,38,38.60
2011,07,07,15,39,41.80
2011,07,07,15,40,51.50
2011,07,07,15,41,40.20
2011,07,07,15,42,25.70
2011,07,07,15,43,30.60
2011,07,07,15,44,53.10
2011,07,07,15,45,41.80
2011,07,07,15,46,32.20
2011,07,07,15,47,40.20
2011,07,07,15,48,43.50
2011,07,07,15,49,43.50
2011,07,07,15,50,51.50
2011,07,07,15,51,30.60
2011,07,07,15,52,35.40
2011,07,07,15,53,41.80
2011,07,07,15,54,45.10
2011,07,07,15,55,45.10
2011,07,07,15,56,51.50
2011,07,07,15,57,41.80
2011,07,07,15,58,46.70
2011,07,07,15,59,54.70
2011,07,07,16,00,40.20
2011,07,07,16,01,41.80
2011,07,07,16,02,56.30
2011,07,07,16,03,51.50
2011,07,07,16,04,51.50
2011,07,07,16,05,51.50
2011,07,07,16,06,41.80
2011,07,07,16,07,35.40
2011,07,07,16,08,32.20
2011,07,07,16,09,29.00
2011,07,07,16,10,45.10
2011,07,07,16,11,51.50
2011,07,07,16,12,40.20
2011,07,07,16,13,30.60
2011,07,07,16,14,46.70
2011,07,07,16,15,37.00
2011,07,07,16,16,33.80
2011,07,07,16,17,51.50
2011,07,07,16,18,46.70
2011,07,07,16,19,37.00
2011,07,07,16,20,27.40
2011,07,07,16,21,22.50
2011,07,07,16,22,27.40
2011,07,07,16,23,32.20
2011,07,07,16,24,35.40
2011,07,07,16,25,38.60
2011,07,07,16,26,43.50
2011,07,07,16,27,48.30
2011,07,07,16,28,41.80
2011,07,07,16,29,40.20
2011,07,07,16,30,30.60
2011,07,07,16,31,25.70
2011,07,07,16,32,45.10
2011,07,07,16,33,49.90
2011,07,07,16,34,49.90
2011,07,07,16,35,45.10
2011,07,07,16,36,40.20
2011,07,07,16,37,46.70
2011,07,07,16,38,35.40
2011,07,07,16,39,53.10
2011,07,07,16,40,43.50
2011,07,07,16,41,51.50
2011,07,07,16,42,51.50
2011,07,07,16,43,35.40
2011,07,07,16,44,38.60
2011,07,07,16,45,33.80
2011,07,07,16,46,41.80
2011,07,07,16,47,45.10
2011,07,07,16,48,29.00
2011,07,07,16,49,43.50
2011,07,07,16,50,46.70
2011,07,07,16,51,37.00
2011,07,07,16,52,43.50
2011,07,07,16,53,40.20
2011,07,07,16,54,30.60
2011,07,07,16,55,51.50
2011,07,07,16,56,35.40
2011,07,07,16,57,30.60
2011,07,07,16,58,25.70
2011,07,07,16,59,27.40
2011,07,07,17,00,27.40
2011,07,07,17,01,37.00
2011,07,07,17,02,32.20
2011,07,07,17,03,24.20
2011,07,07,17,04,37.00
2011,07,07,17,05,32.20
2011,07,07,17,06,32.20
2011,07,07,17,07,27.40
2011,07,07,17,08,33.80
2011,07,07,17,09,24.20
2011,07,07,17,10,32.20
2011,07,07,17,11,41.80
2011,07,07,17,12,49.90
2011,07,07,17,13,35.40
2011,07,07,17,14,48.30
2011,07,07,17,15,43.50
2011,07,07,17,16,35.40
2011,07,07,17,17,37.00
2011,07,07,17,18,38.60
2011,07,07,17,19,32.20
2011,07,07,17,20,25.70
2011,07,07,17,21,24.20
2011,07,07,17,22,19.30
2011,07,07,17,23,30.60
2011,07,07,17,24,27.40
2011,07,07,17,25,40.20
2011,07,07,17,26,27.40
2011,07,07,17,27,35.40
2011,07,07,17,28,33.80
2011,07,07,17,29,35.40
2011,07,07,17,30,33.80
2011,07,07,17,31,38.60
2011,07,07,17,32,38.60
2011,07,07,17,33,53.10
2011,07,07,17,34,32.20
2011,07,07,17,35,35.40
2011,07,07,17,36,38.60
2011,07,07,17,37,45.10
2011,07,07,17,38,45.10
2011,07,07,17,39,45.10
2011,07,07,17,40,48.30
2011,07,07,17,41,38.60
2011,07,07,17,42,46.70
2011,07,07,17,43,40.20
2011,07,07,17,44,45.10
2011,07,07,17,45,33.80
2011,07,07,17,46,35.40